Weather History for KCEF - December, 2013

Change the Weather History Date:

Sunday, December 29, 2013

  Actual Average Record
Temperature  
Mean Temperature 31 °F -  
Max Temperature 39 °F 33 °F 53 °F (2003)
Min Temperature 23 °F 19 °F 8 °F (2000)
Degree Days  
Heating Degree Days 34    
Moisture  
Dew Point 35 °F    
Average Humidity 97    
Maximum Humidity 100    
Minimum Humidity 75    
Precipitation  
Precipitation 1.14 in - - ()
Sea Level Pressure  
Sea Level Pressure 29.70 in    
Wind  
Wind Speed 5 mph (North)    
Max Wind Speed 15 mph    
Max Gust Speed 21 mph    
Visibility 8 miles    
Events Rain    
Averages and records for this station are not official NWS values.
T = Trace of Precipitation, MM = Missing Value Source: NWS Daily Summary

Daily Weather History Graph

Daily Weather History Graph

Search for Another Location

Airport or City:

Trip Planner

Search our weather history database for the weather conditions in past years. The results will help you decide how hot, cold, wet, or windy it might be!

Date:

Astronomy

Dec. 29, 2013 Rise Set
Actual Time 7:18 AM EST 4:26 PM EST
Civil Twilight 6:46 AM EST 4:58 PM EST
Nautical Twilight 6:11 AM EST 5:33 PM EST
Astronomical Twilight 5:37 AM EST 6:07 PM EST
Moon 3:57 AM EST (12/29) 2:03 PM EST (12/29)
Length of Visible Light 10h 11m
Length of Day
9h 07m
Waning Crescent, 11% of the Moon is Illuminated
Dec 29
Waning Crescent
Jan 1
New
Jan 7
First Quarter
Jan 15
Full
Jan 24
Last Quarter

Hourly Weather History & Observations

Time (EST) Temp. Windchill Dew Point Humidity Pressure Visibility Wind Dir Wind Speed Gust Speed Precip Events Conditions
12:58 AM 23.9 °F - 23.5 °F 99% 30.04 in 10.0 mi Calm Calm - N/A   Clear
1:58 AM 23.0 °F - 23.0 °F 100% 30.05 in 10.0 mi ENE 2.3 mph - N/A   Clear
2:58 AM 24.8 °F - 23.0 °F 93% 30.04 in 10.0 mi Calm Calm - N/A   Clear
3:58 AM 25.2 °F 20.9 °F 24.6 °F 98% 30.04 in 10.0 mi NNE 3.5 mph - N/A   Clear
4:58 AM 26.4 °F 22.4 °F 25.9 °F 98% 30.02 in 10.0 mi NE 3.5 mph - N/A   Clear
5:58 AM 27.7 °F - 27.1 °F 98% 30.02 in 10.0 mi Calm Calm - N/A   Clear
6:58 AM 27.5 °F - 27.0 °F 98% 30.01 in 10.0 mi NNE 2.3 mph - N/A   Clear
7:58 AM 28.8 °F - 28.2 °F 98% 30.01 in 10.0 mi NNE 1.2 mph - N/A   Overcast
8:58 AM 31.1 °F - 30.6 °F 98% 30.03 in 10.0 mi NE 2.3 mph - N/A   Overcast
9:58 AM 34.3 °F - 33.8 °F 98% 29.99 in 10.0 mi SSE 2.3 mph - N/A   Overcast
10:58 AM 38.1 °F 33.7 °F 32.0 °F 79% 29.95 in 10.0 mi South 5.8 mph - N/A   Overcast
11:52 AM 39.2 °F 35.0 °F 32.0 °F 75% 29.92 in 10.0 mi SW 5.8 mph - N/A Rain Light Rain
11:58 AM 39.7 °F 35.6 °F 32.5 °F 75% 29.94 in 10.0 mi SW 5.8 mph - 0.00 in Rain Light Rain
12:58 PM 39.2 °F - 39.2 °F 100% 29.90 in 10.0 mi South 2.3 mph - 0.02 in Rain Light Rain
1:04 PM 39.2 °F - 39.2 °F 100% 29.86 in 10.0 mi SSW 1.2 mph - N/A Rain Light Rain
1:06 PM 39.2 °F - 39.2 °F 100% 29.86 in 10.0 mi SW 1.2 mph - N/A Rain Light Rain
1:10 PM 39.2 °F - 39.2 °F 100% 29.86 in 10.0 mi South 1.2 mph - N/A Rain Light Rain
1:34 PM 39.2 °F - 37.4 °F 93% 29.84 in 8.0 mi SSE 2.3 mph - N/A Rain Light Rain
1:38 PM 39.2 °F - 37.4 °F 93% 29.83 in 7.0 mi SSE 2.3 mph - N/A Rain Light Rain
1:58 PM 37.9 °F - 37.4 °F 98% 29.85 in 5.0 mi Calm Calm - 0.03 in Rain Light Rain
2:17 PM 37.4 °F 32.8 °F 37.4 °F 100% 29.79 in 2.5 mi ENE 5.8 mph - N/A Rain Light Rain
2:25 PM 37.4 °F - 37.4 °F 100% 29.79 in 3.0 mi East 2.3 mph - N/A Rain Light Rain
2:58 PM 37.6 °F - 37.4 °F 99% 29.77 in 3.0 mi East 2.3 mph - 0.16 in Rain Light Rain
3:58 PM 37.2 °F - 37.0 °F 99% 29.69 in 3.0 mi NE 2.3 mph - 0.10 in Rain Light Rain
3:59 PM 37.4 °F 34.9 °F 37.4 °F 100% 29.66 in 2.5 mi NE 3.5 mph - N/A Rain Light Rain
4:17 PM 37.4 °F - 37.4 °F 100% 29.64 in 2.5 mi NE 2.3 mph - N/A Rain Light Rain
4:21 PM 37.4 °F 33.8 °F 37.4 °F 100% 29.62 in 2.0 mi ENE 4.6 mph - N/A Rain Light Rain
4:22 PM 37.4 °F 33.8 °F 37.4 °F 100% 29.62 in 2.5 mi NE 4.6 mph - N/A Rain Light Rain
4:28 PM 37.4 °F 34.9 °F 37.4 °F 100% 29.62 in 3.0 mi NNE 3.5 mph - N/A Rain Light Rain
4:37 PM 37.4 °F 31.4 °F 37.4 °F 100% 29.60 in 4.0 mi North 8.1 mph - N/A Rain Rain
4:58 PM 37.8 °F 30.2 °F 37.6 °F 99% 29.63 in 6.0 mi North 11.5 mph - 0.15 in Rain Rain
5:07 PM 37.4 °F 30.3 °F 37.4 °F 100% 29.58 in 3.0 mi NNE 10.4 mph - N/A Rain Heavy Rain
5:58 PM 37.2 °F 29.6 °F 37.0 °F 99% 29.57 in 4.0 mi North 11.5 mph - 0.34 in Rain Heavy Rain
6:58 PM 37.4 °F 28.5 °F 37.0 °F 99% 29.55 in 4.0 mi North 15.0 mph 20.7 mph 0.22 in Rain Rain
7:39 PM 37.4 °F 28.5 °F 37.4 °F 100% 29.47 in 5.0 mi North 15.0 mph - N/A Rain Light Rain
7:58 PM 37.8 °F 29.8 °F 37.4 °F 99% 29.49 in 6.0 mi North 12.7 mph - 0.04 in Rain Light Rain
7:59 PM 37.4 °F 29.8 °F 37.4 °F 100% 29.46 in 6.0 mi North 11.5 mph - N/A Rain Light Rain
8:07 PM 37.4 °F 29.8 °F 37.4 °F 100% 29.45 in 6.0 mi North 11.5 mph - N/A Rain Light Rain
8:13 PM 37.4 °F 30.8 °F 37.4 °F 100% 29.47 in 6.0 mi NNW 9.2 mph - N/A Rain Light Rain
8:15 PM 37.4 °F 30.3 °F 37.4 °F 100% 29.47 in 7.0 mi NNW 10.4 mph - N/A Rain Light Rain
8:17 PM 37.4 °F 30.3 °F 37.4 °F 100% 29.48 in 7.0 mi NNW 10.4 mph - N/A Rain Light Rain
8:27 PM 37.4 °F 29.8 °F 37.4 °F 100% 29.49 in 8.0 mi NW 11.5 mph - N/A Rain Light Rain
8:30 PM 37.4 °F 30.3 °F 37.4 °F 100% 29.49 in 7.0 mi NNW 10.4 mph - N/A Rain Rain
8:58 PM 36.5 °F 27.8 °F 36.3 °F 99% 29.52 in 10.0 mi North 13.8 mph - 0.05 in Rain Light Rain
9:25 PM 37.4 °F 29.3 °F 35.6 °F 93% 29.50 in 10.0 mi North 12.7 mph - N/A Rain Light Rain
9:40 PM 37.4 °F 29.3 °F 35.6 °F 93% 29.51 in 10.0 mi North 12.7 mph - N/A Rain Light Rain
9:54 PM 37.4 °F 29.8 °F 35.6 °F 93% 29.52 in 10.0 mi North 11.5 mph - N/A   Overcast
9:58 PM 36.7 °F 28.9 °F 36.5 °F 99% 29.56 in 10.0 mi North 11.5 mph - 0.03 in   Overcast
10:01 PM 37.4 °F 29.3 °F 35.6 °F 93% 29.54 in 10.0 mi North 12.7 mph - N/A Rain Light Rain
10:14 PM 37.4 °F 29.8 °F 37.4 °F 100% 29.54 in 10.0 mi North 11.5 mph 20.7 mph N/A Rain Light Rain
10:22 PM 37.4 °F 28.9 °F 37.4 °F 100% 29.54 in 10.0 mi North 13.8 mph 20.7 mph N/A Rain Light Rain
10:31 PM 37.4 °F 29.8 °F 37.4 °F 100% 29.55 in 10.0 mi NNW 11.5 mph - N/A   Overcast
10:36 PM 37.4 °F 29.3 °F 37.4 °F 100% 29.56 in 10.0 mi NNW 12.7 mph - N/A   Overcast
10:48 PM 37.4 °F 30.8 °F 37.4 °F 100% 29.55 in 10.0 mi North 9.2 mph - N/A   Overcast
10:58 PM 36.9 °F 28.7 °F 36.3 °F 98% 29.57 in 10.0 mi North 12.7 mph - 0.00 in   Overcast
11:26 PM 35.6 °F 29.2 °F 35.6 °F 100% 29.57 in 10.0 mi North 8.1 mph - N/A   Mostly Cloudy
11:28 PM 35.6 °F 28.6 °F 35.6 °F 100% 29.57 in 10.0 mi North 9.2 mph - N/A   Mostly Cloudy
11:58 PM 35.2 °F 31.2 °F 34.7 °F 98% 29.62 in 10.0 mi North 4.6 mph - N/A   Clear